| time (UTC) | temp C | wind direction | speed KPH | gust KPH | rain 1hr cm | rain 24hr cm | rain mn cm | humidity % | barometer mb |
| 20260505083446 | 11 | 335 | 1.6 | 3.2 | 0.00 | 0.00 | 0.00 | 78 | 1011.6 |
| 20260505082942 | 10 | 1 | 1.6 | 3.2 | 0.00 | 0.00 | 0.00 | 82 | 1011.4 |
| 20260505082438 | 10 | 352 | 1.6 | 1.6 | 0.00 | 0.00 | 0.00 | 85 | 1011.3 |
| 20260505081936 | 10 | 353 | 0.0 | 0.0 | 0.00 | 0.00 | 0.00 | 84 | 1011.1 |
| 20260505081432 | 10 | 359 | 0.0 | 1.6 | 0.00 | 0.00 | 0.00 | 86 | 1011.0 |
| 20260505080928 | 10 | 6 | 0.0 | 0.0 | 0.00 | 0.00 | 0.00 | 86 | 1011.1 |
| 20260505080425 | 10 | 6 | 0.0 | 0.0 | 0.00 | 0.00 | 0.00 | 88 | 1011.2 |
| 20260505075920 | 10 | 6 | 0.0 | 0.0 | 0.00 | 0.00 | 0.00 | 87 | 1011.3 |
| 20260505075417 | 10 | 6 | 0.0 | 0.0 | 0.00 | 0.00 | 0.00 | 85 | 1011.1 |
| 20260505074915 | 11 | 5 | 0.0 | 0.0 | 0.00 | 0.00 | 0.00 | 83 | 1011.2 |
| 20260505074412 | 11 | 6 | 0.0 | 0.0 | 0.00 | 0.00 | 0.00 | 84 | 1011.1 |
| 20260505073909 | 10 | 8 | 0.0 | 1.6 | 0.00 | 0.00 | 0.00 | 84 | 1011.1 |
| 20260505073407 | 10 | 8 | 0.0 | 0.0 | 0.00 | 0.00 | 0.00 | 84 | 1011.1 |
| 20260505072904 | 11 | 8 | 0.0 | 0.0 | 0.00 | 0.00 | 0.00 | 83 | 1011.0 |
| 20260505072359 | 11 | 8 | 0.0 | 0.0 | 0.00 | 0.00 | 0.00 | 82 | 1011.0 |
| 20260505071856 | 11 | 7 | 0.0 | 0.0 | 0.00 | 0.00 | 0.00 | 81 | 1010.8 |
| 20260505071352 | 11 | 344 | 1.6 | 1.6 | 0.00 | 0.00 | 0.00 | 81 | 1011.1 |
| 20260505070851 | 12 | 202 | 1.6 | 1.6 | 0.00 | 0.00 | 0.00 | 77 | 1011.2 |
| 20260505070347 | 12 | 313 | 3.2 | 3.2 | 0.00 | 0.00 | 0.00 | 76 | 1010.9 |
| 20260505065842 | 12 | 355 | 0.0 | 1.6 | 0.00 | 0.00 | 0.00 | 76 | 1011.0 |
| 20260505065339 | 12 | 352 | 0.0 | 1.6 | 0.00 | 0.00 | 0.00 | 77 | 1011.2 |
| 20260505064836 | 11 | 320 | 1.6 | 3.2 | 0.00 | 0.00 | 0.00 | 78 | 1010.9 |
| 20260505064333 | 11 | 298 | 3.2 | 3.2 | 0.00 | 0.00 | 0.00 | 81 | 1011.0 |
| 20260505063832 | 11 | 355 | 0.0 | 0.0 | 0.00 | 0.00 | 0.00 | 81 | 1011.1 |
| 20260505063327 | 10 | 326 | 1.6 | 1.6 | 0.00 | 0.00 | 0.00 | 83 | 1011.1 |
| 20260505062824 | 10 | 7 | 1.6 | 1.6 | 0.00 | 0.00 | 0.00 | 84 | 1011.1 |
| 20260505062321 | 10 | 7 | 0.0 | 0.0 | 0.00 | 0.00 | 0.00 | 85 | 1010.8 |
| 20260505061818 | 10 | 7 | 0.0 | 0.0 | 0.00 | 0.00 | 0.00 | 84 | 1011.1 |
| 20260505061316 | 10 | 7 | 0.0 | 0.0 | 0.00 | 0.00 | 0.00 | 83 | 1011.0 |
| 20260505060813 | 10 | 7 | 0.0 | 0.0 | 0.00 | 0.00 | 0.00 | 84 | 1010.9 |
| 20260505060310 | 10 | 7 | 0.0 | 0.0 | 0.00 | 0.00 | 0.00 | 84 | 1011.0 |
| 20260505055806 | 10 | 7 | 0.0 | 0.0 | 0.00 | 0.00 | 0.00 | 83 | 1011.0 |
| 20260505055303 | 11 | 6 | 0.0 | 0.0 | 0.00 | 0.00 | 0.00 | 80 | 1011.4 |
| 20260505054800 | 11 | 338 | 1.6 | 3.2 | 0.00 | 0.00 | 0.00 | 79 | 1011.2 |
| 20260505054257 | 11 | 352 | 0.0 | 0.0 | 0.00 | 0.00 | 0.00 | 80 | 1011.3 |
| 20260505053755 | 11 | 350 | 0.0 | 1.6 | 0.00 | 0.00 | 0.00 | 79 | 1011.3 |
| 20260505053252 | 11 | 359 | 0.0 | 0.0 | 0.00 | 0.00 | 0.00 | 80 | 1011.4 |
| 20260505052749 | 11 | 346 | 1.6 | 1.6 | 0.00 | 0.00 | 0.00 | 80 | 1011.3 |
| 20260505052246 | 11 | 11 | 0.0 | 0.0 | 0.00 | 0.00 | 0.00 | 80 | 1011.2 |
| 20260505051742 | 11 | 358 | 0.0 | 0.0 | 0.00 | 0.00 | 0.00 | 80 | 1011.5 |
| 20260505051240 | 11 | 355 | 1.6 | 1.6 | 0.00 | 0.00 | 0.00 | 80 | 1011.5 |
| 20260505050738 | 11 | 2 | 0.0 | 0.0 | 0.00 | 0.00 | 0.00 | 82 | 1011.5 |
| 20260505050237 | 11 | 359 | 0.0 | 0.0 | 0.00 | 0.00 | 0.00 | 81 | 1011.5 |
| 20260505041706 | 11 | 359 | 0.0 | 0.0 | 0.00 | 0.00 | 0.00 | 80 | 1011.2 |
| 20260505041203 | 11 | 359 | 1.6 | 1.6 | 0.00 | 0.00 | 0.00 | 82 | 1011.3 |
| 20260505040700 | 11 | 0 | 0.0 | 0.0 | 0.00 | 0.00 | 0.00 | 82 | 1011.2 |
| 20260505040158 | 11 | 357 | 0.0 | 0.0 | 0.00 | 0.00 | 0.00 | 81 | 1011.3 |
| 20260505035654 | 11 | 357 | 0.0 | 0.0 | 0.00 | 0.00 | 0.00 | 80 | 1011.2 |
| 20260505035150 | 11 | 1 | 0.0 | 0.0 | 0.00 | 0.00 | 0.00 | 81 | 1011.3 |
| 20260505034647 | 11 | 1 | 0.0 | 0.0 | 0.00 | 0.00 | 0.00 | 81 | 1011.3 |
| 20260505034144 | 11 | 1 | 0.0 | 0.0 | 0.00 | 0.00 | 0.00 | 81 | 1011.3 |
| 20260505033640 | 11 | 2 | 0.0 | 0.0 | 0.00 | 0.00 | 0.00 | 81 | 1011.3 |
| 20260505033139 | 11 | 2 | 0.0 | 1.6 | 0.00 | 0.00 | 0.00 | 80 | 1011.5 |
| 20260505032637 | 11 | 2 | 1.6 | 1.6 | 0.00 | 0.00 | 0.00 | 80 | 1011.5 |
| 20260505032133 | 11 | 2 | 0.0 | 0.0 | 0.00 | 0.00 | 0.00 | 79 | 1011.2 |
| 20260505031630 | 12 | 2 | 0.0 | 0.0 | 0.00 | 0.00 | 0.00 | 79 | 1011.4 |
| 20260505031126 | 12 | 357 | 0.0 | 0.0 | 0.00 | 0.00 | 0.00 | 77 | 1011.3 |
| 20260505030623 | 12 | 356 | 0.0 | 0.0 | 0.00 | 0.00 | 0.00 | 76 | 1011.6 |
| 20260505030119 | 12 | 357 | 0.0 | 0.0 | 0.00 | 0.00 | 0.00 | 76 | 1011.6 |
| 20260505025615 | 12 | 356 | 1.6 | 1.6 | 0.00 | 0.00 | 0.00 | 76 | 1011.5 |
| 20260505025114 | 13 | 357 | 0.0 | 0.0 | 0.00 | 0.00 | 0.00 | 75 | 1011.5 |
| 20260505024611 | 13 | 340 | 0.0 | 1.6 | 0.00 | 0.00 | 0.00 | 75 | 1011.5 |
| 20260505024108 | 13 | 337 | 1.6 | 1.6 | 0.00 | 0.00 | 0.00 | 75 | 1011.3 |
| 20260505023605 | 12 | 2 | 1.6 | 1.6 | 0.00 | 0.00 | 0.00 | 76 | 1011.5 |
| 20260505023103 | 13 | 3 | 0.0 | 0.0 | 0.00 | 0.00 | 0.00 | 74 | 1011.6 |
| 20260505022600 | 13 | 354 | 1.6 | 1.6 | 0.00 | 0.00 | 0.00 | 73 | 1011.5 |
| 20260505022057 | 13 | 347 | 1.6 | 1.6 | 0.00 | 0.00 | 0.00 | 73 | 1011.5 |
| 20260505021553 | 13 | 354 | 0.0 | 0.0 | 0.00 | 0.00 | 0.00 | 72 | 1011.6 |
| 20260505021050 | 13 | 338 | 1.6 | 1.6 | 0.00 | 0.00 | 0.00 | 72 | 1011.4 |
| 20260505020550 | 14 | 329 | 0.0 | 1.6 | 0.00 | 0.00 | 0.00 | 71 | 1011.6 |
| 20260505020047 | 14 | 309 | 3.2 | 3.2 | 0.00 | 0.00 | 0.00 | 70 | 1011.5 |
| 20260505015544 | 14 | 345 | 1.6 | 3.2 | 0.00 | 0.00 | 0.00 | 71 | 1011.4 |
| 20260505015041 | 14 | 334 | 3.2 | 3.2 | 0.00 | 0.00 | 0.00 | 70 | 1011.4 |
| 20260505014538 | 15 | 282 | 3.2 | 3.2 | 0.00 | 0.00 | 0.00 | 70 | 1011.4 |
| 20260505014035 | 15 | 345 | 0.0 | 1.6 | 0.00 | 0.00 | 0.00 | 69 | 1011.3 |
| 20260505013532 | 15 | 330 | 1.6 | 1.6 | 0.00 | 0.00 | 0.00 | 69 | 1011.2 |
| 20260505013030 | 15 | 342 | 1.6 | 1.6 | 0.00 | 0.00 | 0.00 | 69 | 1011.1 |
| 20260505012527 | 15 | 303 | 1.6 | 1.6 | 0.00 | 0.00 | 0.00 | 69 | 1011.3 |
| 20260505012025 | 15 | 338 | 1.6 | 1.6 | 0.00 | 0.00 | 0.00 | 69 | 1011.3 |
| 20260505011520 | 15 | 345 | 1.6 | 1.6 | 0.00 | 0.00 | 0.00 | 69 | 1011.3 |
| 20260505011017 | 15 | 308 | 0.0 | 1.6 | 0.00 | 0.00 | 0.00 | 68 | 1011.1 |
| 20260505010512 | 15 | 267 | 1.6 | 3.2 | 0.00 | 0.00 | 0.00 | 67 | 1011.2 |
| 20260505010009 | 15 | 307 | 1.6 | 3.2 | 0.00 | 0.00 | 0.00 | 67 | 1010.9 |
| 20260505005506 | 15 | 308 | 1.6 | 3.2 | 0.00 | 0.00 | 0.00 | 66 | 1010.9 |
| 20260505005004 | 15 | 316 | 1.6 | 1.6 | 0.00 | 0.00 | 0.00 | 66 | 1010.9 |
| 20260505004500 | 15 | 281 | 3.2 | 3.2 | 0.00 | 0.00 | 0.00 | 66 | 1010.9 |
| 20260505003957 | 15 | 233 | 4.8 | 6.4 | 0.00 | 0.00 | 0.00 | 65 | 1011.0 |
| 20260505003454 | 16 | 320 | 1.6 | 3.2 | 0.00 | 0.00 | 0.00 | 65 | 1011.1 |
| 20260505002950 | 16 | 246 | 3.2 | 3.2 | 0.00 | 0.00 | 0.00 | 64 | 1010.8 |
| 20260505002446 | 16 | 325 | 3.2 | 3.2 | 0.00 | 0.00 | 0.00 | 65 | 1011.1 |
| 20260505001945 | 16 | 332 | 1.6 | 1.6 | 0.00 | 0.00 | 0.00 | 65 | 1011.3 |
| 20260505001442 | 16 | 253 | 4.8 | 6.4 | 0.00 | 0.00 | 0.00 | 64 | 1010.9 |
| 20260505000939 | 16 | 252 | 1.6 | 1.6 | 0.00 | 0.00 | 0.00 | 65 | 1010.8 |
| 20260505000437 | 16 | 228 | 4.8 | 6.4 | 0.00 | 0.00 | 0.00 | 63 | 1010.9 |
| 20260504235934 | 16 | 302 | 3.2 | 4.8 | 0.00 | 0.00 | 0.00 | 63 | 1010.9 |
| 20260504235431 | 16 | 238 | 6.4 | 9.7 | 0.00 | 0.00 | 0.00 | 62 | 1010.9 |
| 20260504234927 | 16 | 288 | 4.8 | 4.8 | 0.00 | 0.00 | 0.00 | 62 | 1010.8 |
| 20260504234425 | 17 | 192 | 4.8 | 6.4 | 0.00 | 0.00 | 0.00 | 60 | 1010.8 |
| 20260504233921 | 17 | 242 | 4.8 | 6.4 | 0.00 | 0.00 | 0.00 | 60 | 1010.7 |
| 20260504233417 | 17 | 243 | 8.0 | 11.3 | 0.00 | 0.00 | 0.00 | 59 | 1010.9 |
| 20260504232914 | 17 | 272 | 8.0 | 9.7 | 0.00 | 0.00 | 0.00 | 58 | 1010.9 |
| 20260504232411 | 17 | 231 | 4.8 | 6.4 | 0.00 | 0.00 | 0.00 | 57 | 1010.5 |
| 20260504231908 | 17 | 231 | 8.0 | 12.9 | 0.00 | 0.00 | 0.00 | 58 | 1010.9 |
| 20260504231404 | 17 | 241 | 4.8 | 6.4 | 0.00 | 0.00 | 0.00 | 57 | 1010.8 |
| 20260504230901 | 17 | 261 | 6.4 | 6.4 | 0.00 | 0.00 | 0.00 | 56 | 1010.8 |
| 20260504230358 | 17 | 256 | 6.4 | 9.7 | 0.00 | 0.00 | 0.00 | 57 | 1010.7 |
| 20260504225856 | 18 | 212 | 4.8 | 6.4 | 0.00 | 0.00 | 0.00 | 55 | 1010.8 |
| 20260504225352 | 18 | 233 | 9.7 | 11.3 | 0.00 | 0.00 | 0.00 | 55 | 1010.7 |
| 20260504224850 | 18 | 273 | 3.2 | 4.8 | 0.00 | 0.00 | 0.00 | 55 | 1010.7 |
| 20260504224347 | 18 | 229 | 8.0 | 11.3 | 0.00 | 0.00 | 0.00 | 56 | 1010.5 |
| 20260504223844 | 18 | 292 | 6.4 | 6.4 | 0.00 | 0.00 | 0.00 | 54 | 1010.5 |
| 20260504223339 | 18 | 204 | 4.8 | 4.8 | 0.00 | 0.00 | 0.00 | 54 | 1010.5 |
| 20260504222836 | 18 | 243 | 9.7 | 11.3 | 0.00 | 0.00 | 0.00 | 54 | 1010.5 |
| 20260504222333 | 18 | 212 | 6.4 | 6.4 | 0.00 | 0.00 | 0.00 | 51 | 1010.7 |
| 20260504221831 | 19 | 329 | 3.2 | 4.8 | 0.00 | 0.00 | 0.00 | 50 | 1010.5 |
| 20260504221327 | 19 | 226 | 3.2 | 3.2 | 0.00 | 0.00 | 0.00 | 51 | 1010.5 |
| 20260504220825 | 19 | 233 | 8.0 | 12.9 | 0.00 | 0.00 | 0.00 | 50 | 1010.4 |
| 20260504220321 | 19 | 293 | 4.8 | 6.4 | 0.00 | 0.00 | 0.00 | 51 | 1010.4 |
| 20260504215819 | 19 | 208 | 8.0 | 9.7 | 0.00 | 0.00 | 0.00 | 51 | 1010.5 |
| 20260504215315 | 19 | 196 | 6.4 | 16.1 | 0.00 | 0.00 | 0.00 | 50 | 1010.5 |
| 20260504214811 | 18 | 323 | 8.0 | 14.5 | 0.00 | 0.00 | 0.00 | 50 | 1010.4 |
| 20260504214308 | 18 | 250 | 14.5 | 17.7 | 0.00 | 0.00 | 0.00 | 51 | 1010.5 |
| 20260504213805 | 19 | 234 | 9.7 | 12.9 | 0.00 | 0.00 | 0.00 | 49 | 1010.7 |
| 20260504213301 | 20 | 263 | 11.3 | 17.7 | 0.00 | 0.00 | 0.00 | 47 | 1010.4 |
| 20260504212758 | 20 | 268 | 12.9 | 16.1 | 0.00 | 0.00 | 0.00 | 49 | 1010.3 |
| 20260504212254 | 20 | 277 | 8.0 | 11.3 | 0.00 | 0.00 | 0.00 | 50 | 1010.2 |
| 20260504211752 | 20 | 218 | 11.3 | 16.1 | 0.00 | 0.00 | 0.00 | 52 | 1010.2 |
| 20260504211248 | 19 | 297 | 9.7 | 12.9 | 0.00 | 0.00 | 0.00 | 51 | 1010.2 |
| 20260504210746 | 20 | 200 | 16.1 | 20.9 | 0.00 | 0.00 | 0.00 | 50 | 1010.0 |
| 20260504210243 | 20 | 256 | 9.7 | 12.9 | 0.00 | 0.00 | 0.00 | 50 | 1010.1 |
| 20260504205739 | 19 | 252 | 8.0 | 9.7 | 0.00 | 0.00 | 0.00 | 51 | 1010.1 |
| 20260504205237 | 18 | 238 | 11.3 | 12.9 | 0.00 | 0.00 | 0.00 | 55 | 1009.9 |
| 20260504204735 | 18 | 211 | 8.0 | 9.7 | 0.00 | 0.00 | 0.00 | 54 | 1010.1 |
| 20260504204233 | 18 | 247 | 9.7 | 12.9 | 0.00 | 0.00 | 0.00 | 54 | 1010.1 |
| 20260504203732 | 19 | 215 | 14.5 | 24.1 | 0.00 | 0.00 | 0.00 | 52 | 1010.2 |
| 20260504203229 | 19 | 239 | 6.4 | 9.7 | 0.00 | 0.00 | 0.00 | 52 | 1010.1 |
| 20260504202729 | 18 | 225 | 8.0 | 9.7 | 0.00 | 0.00 | 0.00 | 53 | 1010.3 |
| 20260504202227 | 18 | 44 | 8.0 | 11.3 | 0.00 | 0.00 | 0.00 | 54 | 1010.3 |
| 20260504201724 | 18 | 272 | 12.9 | 14.5 | 0.00 | 0.00 | 0.00 | 54 | 1010.1 |
| 20260504201221 | 19 | 211 | 9.7 | 14.5 | 0.00 | 0.00 | 0.00 | 53 | 1010.3 |
| 20260504200718 | 19 | 197 | 17.7 | 22.5 | 0.00 | 0.00 | 0.00 | 51 | 1010.2 |
| 20260504200214 | 19 | 281 | 6.4 | 9.7 | 0.00 | 0.00 | 0.00 | 53 | 1010.3 |
| 20260504195711 | 18 | 286 | 9.7 | 12.9 | 0.00 | 0.00 | 0.00 | 52 | 1010.7 |
| 20260504195207 | 18 | 214 | 9.7 | 12.9 | 0.00 | 0.00 | 0.00 | 52 | 1010.5 |
| 20260504194704 | 18 | 263 | 14.5 | 16.1 | 0.00 | 0.00 | 0.00 | 54 | 1010.4 |
| 20260504194200 | 18 | 212 | 11.3 | 12.9 | 0.00 | 0.00 | 0.00 | 53 | 1010.7 |
| 20260504193656 | 19 | 239 | 12.9 | 14.5 | 0.00 | 0.00 | 0.00 | 52 | 1010.5 |
| 20260504193154 | 18 | 220 | 6.4 | 6.4 | 0.00 | 0.00 | 0.00 | 52 | 1010.7 |
| 20260504192652 | 19 | 232 | 16.1 | 25.7 | 0.00 | 0.00 | 0.00 | 51 | 1010.9 |
| 20260504192150 | 19 | 240 | 16.1 | 20.9 | 0.00 | 0.00 | 0.00 | 51 | 1011.2 |
| 20260504191648 | 19 | 219 | 12.9 | 16.1 | 0.00 | 0.00 | 0.00 | 52 | 1011.1 |
| 20260504191144 | 18 | 229 | 4.8 | 4.8 | 0.00 | 0.00 | 0.00 | 52 | 1011.0 |
| 20260504190640 | 18 | 234 | 14.5 | 24.1 | 0.00 | 0.00 | 0.00 | 52 | 1010.9 |
| 20260504190137 | 20 | 218 | 16.1 | 17.7 | 0.00 | 0.00 | 0.00 | 51 | 1010.9 |
| 20260504185633 | 19 | 206 | 12.9 | 17.7 | 0.00 | 0.00 | 0.00 | 51 | 1011.0 |
| 20260504185130 | 20 | 232 | 11.3 | 14.5 | 0.00 | 0.00 | 0.00 | 48 | 1011.1 |
| 20260504184626 | 19 | 228 | 9.7 | 12.9 | 0.00 | 0.00 | 0.00 | 49 | 1011.6 |
| 20260504184121 | 18 | 272 | 11.3 | 16.1 | 0.00 | 0.00 | 0.00 | 52 | 1011.5 |
| 20260504183619 | 18 | 225 | 20.9 | 24.1 | 0.00 | 0.00 | 0.00 | 50 | 1011.5 |
| 20260504183116 | 18 | 242 | 6.4 | 9.7 | 0.00 | 0.00 | 0.00 | 52 | 1011.4 |
| 20260504182614 | 19 | 229 | 11.3 | 16.1 | 0.00 | 0.00 | 0.00 | 50 | 1011.5 |
| 20260504182111 | 18 | 227 | 22.5 | 25.7 | 0.00 | 0.00 | 0.00 | 49 | 1011.6 |
| 20260504181608 | 18 | 220 | 14.5 | 20.9 | 0.00 | 0.00 | 0.00 | 49 | 1011.5 |
| 20260504181106 | 18 | 332 | 11.3 | 16.1 | 0.00 | 0.00 | 0.00 | 47 | 1011.6 |
| 20260504180605 | 18 | 225 | 14.5 | 14.5 | 0.00 | 0.00 | 0.00 | 49 | 1011.6 |
| 20260504180103 | 18 | 214 | 11.3 | 14.5 | 0.00 | 0.00 | 0.00 | 52 | 1011.5 |
| 20260504175600 | 19 | 225 | 17.7 | 25.7 | 0.00 | 0.00 | 0.00 | 50 | 1011.5 |
| 20260504175057 | 18 | 220 | 20.9 | 24.1 | 0.00 | 0.00 | 0.00 | 49 | 1011.4 |
| 20260504174555 | 18 | 266 | 16.1 | 22.5 | 0.00 | 0.00 | 0.00 | 49 | 1012.0 |
| 20260504174051 | 18 | 236 | 19.3 | 29.0 | 0.00 | 0.00 | 0.00 | 48 | 1011.9 |
| 20260504173548 | 18 | 232 | 12.9 | 20.9 | 0.00 | 0.00 | 0.00 | 52 | 1011.9 |
| 20260504173046 | 18 | 216 | 11.3 | 12.9 | 0.00 | 0.00 | 0.00 | 50 | 1011.8 |
| 20260504172541 | 18 | 268 | 16.1 | 20.9 | 0.00 | 0.00 | 0.00 | 49 | 1012.0 |
| 20260504172038 | 17 | 239 | 12.9 | 16.1 | 0.00 | 0.00 | 0.00 | 49 | 1012.0 |
| 20260504171535 | 18 | 228 | 20.9 | 25.7 | 0.00 | 0.00 | 0.00 | 49 | 1012.2 |
| 20260504171032 | 17 | 239 | 11.3 | 12.9 | 0.00 | 0.00 | 0.00 | 49 | 1012.0 |
| 20260504170528 | 17 | 15 | 6.4 | 9.7 | 0.00 | 0.00 | 0.00 | 48 | 1012.3 |
| 20260504150912 | 15 | 209 | 12.9 | 20.9 | 0.00 | 0.00 | 0.00 | 53 | 1013.2 |
| 20260504150409 | 15 | 191 | 9.7 | 12.9 | 0.00 | 0.00 | 0.00 | 53 | 1013.2 |
| 20260504140835 | 13 | 238 | 16.1 | 24.1 | 0.00 | 0.00 | 0.00 | 55 | 1013.4 |
| 20260504140331 | 13 | 202 | 3.2 | 4.8 | 0.00 | 0.00 | 0.00 | 59 | 1013.7 |
| 20260504130800 | 11 | 246 | 4.8 | 6.4 | 0.00 | 0.00 | 0.00 | 63 | 1013.5 |
| 20260504130256 | 11 | 282 | 8.0 | 11.3 | 0.00 | 0.00 | 0.00 | 63 | 1013.5 |
| 20260504120220 | 7 | 230 | 4.8 | 6.4 | 0.00 | 0.00 | 0.00 | 72 | 1014.1 |
| 20260504110647 | 3 | 21 | 0.0 | 0.0 | 0.00 | 0.00 | 0.00 | 87 | 1013.4 |
| 20260504110143 | 3 | 21 | 0.0 | 0.0 | 0.00 | 0.00 | 0.00 | 87 | 1013.9 |
| 20260504100603 | 2 | 18 | 0.0 | 0.0 | 0.00 | 0.00 | 0.00 | 84 | 1013.8 |